カタログに戻る

ICEYE-X65

運用中科学VLEO
NORAD 66300·PAYLOAD·🇦🇪 UAE

打ち上げ Nov 2, 2025 から Cape Canaveral Space Force Station

Loading…

次のパス (今後24時間)

TLE

経年Source: Space-Track

元期: Sep 13, 2026, 09:19 UTC

1 66300U 25248H   26256.38880443  .00001424  00000-0  10659-3 0  9990
2 66300  45.4061  30.2856 0004885 173.0711 187.0239 15.08172308 48834

AllMySatでICEYE-X65をリアルタイム追跡

Download on the App Store